Location: Niagara
(43.2500°N, 79.0670°W)
Time: 21:33:35
(UTC-04:00)

Vanguard 1 - Visible Passes

Search period start: 19 October 2017 00:00
Search period end: 29 October 2017 00:00
Orbit: 650 x 3834 km, 34.3° (Epoch: 18 October)

Date Brightness Start Highest point End Pass type
(mag) Time Alt. Az. Time Alt. Az. Time Alt. Az.
19 Oct 13.5 01:10:35 26° E 01:10:35 26° E 01:19:02 10° E visible
19 Oct 12.5 03:23:18 64° S 03:23:47 64° S 03:46:48 10° E visible
19 Oct 13.0 05:36:00 28° W 05:49:39 62° SSW 06:11:56 10° ESE visible
20 Oct 13.3 01:30:23 31° ESE 01:30:23 31° ESE 01:40:54 10° E visible
20 Oct 12.4 03:43:06 63° SSW 03:45:06 65° S 04:08:18 10° ESE visible
20 Oct 13.1 05:55:49 23° W 06:10:58 58° SSW 06:32:48 10° SE visible
21 Oct 13.1 01:50:11 37° ESE 01:50:11 37° ESE 02:02:39 10° E visible
21 Oct 12.4 04:02:54 59° SW 04:06:29 65° S 04:29:43 10° ESE visible
21 Oct 13.2 06:15:37 18° W 06:32:10 52° SSW 06:53:25 10° SE visible
22 Oct 13.0 02:10:02 43° ESE 02:10:02 43° ESE 02:24:21 10° E visible
22 Oct 12.5 04:22:45 54° SW 04:27:53 64° S 04:51:00 10° ESE visible
22 Oct 13.3 06:35:28 14° W 06:53:16 46° SSW 07:13:46 10° SE visible
23 Oct 13.9 00:17:11 11° E 00:17:11 11° E 00:17:49 10° E visible
23 Oct 12.8 02:29:55 49° ESE 02:29:55 49° ESE 02:45:59 10° E visible
23 Oct 12.5 04:42:38 47° WSW 04:49:14 61° SSW 05:12:08 10° ESE visible
23 Oct 13.4 06:55:35 10° W 07:14:14 39° SW 07:33:45 10° SSE visible
24 Oct 13.8 00:37:06 15° E 00:37:06 15° E 00:39:41 10° E visible
24 Oct 12.7 02:49:50 55° SE 02:49:50 55° SE 03:07:33 10° ESE visible
24 Oct 12.6 05:02:33 40° WSW 05:10:33 56° SSW 05:33:03 10° SE visible
25 Oct 13.7 00:57:03 19° E 00:57:03 19° E 01:01:27 10° E visible
25 Oct 12.6 03:09:47 59° SSE 03:09:47 59° SSE 03:29:02 10° ESE visible
25 Oct 12.8 05:22:30 34° WSW 05:31:47 51° SSW 05:53:43 10° SE visible
26 Oct 13.5 01:17:02 23° E 01:17:02 23° E 01:23:09 10° E visible
26 Oct 12.5 03:29:46 60° S 03:29:46 60° S 03:50:23 10° ESE visible
26 Oct 12.9 05:42:30 28° WSW 05:52:57 44° SSW 06:14:03 10° SE visible
27 Oct 13.4 01:37:04 27° ESE 01:37:04 27° ESE 01:44:48 10° E visible
27 Oct 12.5 03:49:48 58° S 03:49:48 58° S 04:11:33 10° ESE visible
27 Oct 13.1 06:02:32 22° W 06:14:00 38° SSW 06:34:01 10° SSE visible
28 Oct 13.3 01:57:07 31° ESE 01:57:07 31° ESE 02:06:23 10° ESE visible
28 Oct 12.5 04:09:52 53° SSW 04:10:39 53° SSW 04:32:31 10° SE visible
28 Oct 13.2 06:22:36 17° W 06:34:58 31° SW 06:53:29 10° SSE visible
